Temp
52 52 52 52 52 51 46 39 33 47 47 30 32 24 40 47 45 48 45 43 41 37 37 34 34 34 39 45 42 32 33 18 19 27 35 37 35 27 28 11 8 16 19 19
52 52 52 52 51 50 40 36 35 45 44 21 26 36 42 44 44 44 43 41 42 41 36 30 36 37 44 44 40 34 35 19 7 21 27 30 20 23 21 18 20 18 8 19
52 52 52 52 51 51 41 35 29 32 34 33 34 35 36 37 45 44 45 42 43 37 33 37 33 34 41 43 41 47 40 25 17 11 15 17 12 14 16 19 16 17 21 26
52 52 52 51 51 51 42 33 27 34 21 27 33 37 40 37 35 43 44 38 39 36 30 31 31 35 36 39 43 38 32 16 17 19 26 28 28 26 29 17 24 16 27 28
52 52 52 51 51 50 40 33 31 33 33 38 36 35 36 38 40 40 37 35 40 37 30 32 25 31 31 31 35 31 31 17 26 20 30 30 28 31 31 31 32 32 30 30
51 51 51 51 50 48 38 39 40 36 33 32 30 30 37 40 43 43 43 40 36 33 34 37 37 37 36 35 32 30 28 20 17 13 27 27 16 28 34 34 36 31 27 32
51 51 51 50 50 48 41 40 39 30 24 31 33 41 42 41 41 37 43 42 37 39 43 40 37 36 35 34 33 35 27 24 17 12 23 1 28 39 40 34 33 34 34 37
51 50 50 50 50 51 42 41 39 30 23 31 37 40 40 41 41 38 40 42 43 42 37 24 18 19 25 29 35 33 34 26 11 9 14 25 31 37 34 30 31 37 35 37
50 50 50 50 50 50 43 41 41 34 27 28 40 35 39 29 29 32 36 42 43 38 25 16 8 12 21 22 31 38 35 32 21 13 11 7 25 36 42 41 23 38 38 37
50 50 50 50 50 50 43 41 43 36 25 33 36 29 30 37 32 27 33 35 33 35 15 11 14 19 32 23 22 23 25 19 18 18 14 25 37 41 43 25 21 37 38 38
49 50 50 50 50 50 44 40 43 37 28 32 39 41 34 32 30 26 32 29 28 21 16 15 16 19 25 26 31 30 26 17 11 15 7 16 41 39 32 35 38 39 39 39
49 49 49 50 50 50 46 37 43 43 34 33 39 41 43 42 41 33 32 31 30 25 16 16 20 18 21 25 19 35 23 27 22 23 23 35 40 40 43 41 39 40 39 41
48 49 50 50 50 50 46 38 39 36 30 30 32 34 42 44 43 43 29 30 36 32 32 23 22 20 24 16 22 28 33 36 23 28 34 36 39 42 43 42 41 43 43 43
49 49 49 49 49 50 46 38 39 36 30 22 29 44 40 46 43 41 40 39 38 39 34 24 20 22 28 23 27 27 30 32 29 28 34 37 40 41 42 43 45 45 45 44
48 48 49 49 49 50 43 39 39 41 32 26 28 36 42 46 43 41 39 37 34 26 30 28 24 27 29 27 28 28 33 31 26 25 36 34 36 41 44 43 44 43 43 41
48 48 48 48 49 45 37 27 37 41 40 27 21 33 36 40 41 39 37 37 33 30 31 28 28 32 30 24 22 34 36 38 38 34 40 39 41 42 44 44 43 43 41 42
47 47 48 48 48 37 30 29 35 44 41 26 24 25 34 40 37 32 27 32 33 30 31 28 26 27 28 23 23 34 37 39 40 41 40 37 40 39 43 43 43 44 42 41
47 47 47 47 47 43 35 37 44 44 37 34 24 24 26 35 25 24 30 29 32 33 28 27 25 26 24 24 32 36 39 39 40 40 42 40 42 43 42 43 43 40 39 38
47 47 46 38 34 28 33 46 45 38 32 18 20 19 15 33 24 24 25 23 17 24 24 24 29 26 22 30 32 35 37 37 39 42 43 42 40 41 43 42 40 39 36 35
46 38 31 24 32 45 43 37 33 31 30 31 26 26 21 28 26 28 22 20 20 17 24 25 21 26 35 37 39 40 40 41 42 36 36 37 40 39 39 40 39 37 35 35
33 27 28 38 46 35 29 26 27 27 24 27 29 26 26 31 24 24 27 28 28 21 24 23 23 23 29 37 38 40 40 41 42 43 43 41 41 38 37 37 37 36 35 34
34 35 39 38 30 24 23 23 26 24 24 26 24 25 26 27 30 25 26 26 25 22 27 23 19 25 34 37 40 40 40 42 41 43 42 41 39 39 38 36 35 35 35 31
37 32 29 26 27 18 17 10 21 18 27 28 29 26 26 27 28 21 21 15 18 26 8 19 22 29 33 34 38 39 40 39 40 42 42 41 40 38 36 34 34 34 33 33
26 25 11 19 18 22 25 25 26 29 29 29 28 26 30 29 27 28 23 26 24 15 9 19 24 29 30 32 34 34 35 36 36 37 38 36 35 33 33 29 28 28 29 29
25 26 13 21 27 26 29 30 29 33 31 28 26 27 30 26 27 29 27 23 19 21 17 22 29 30 30 30 32 32 32 32 32 32 30 28 28 29 26 26 27 28 22 21
25 26 22 25 22 17 22 26 28 32 30 29 28 27 24 24 27 25 22 22 16 21 26 29 30 30 31 31 32 32 33 33 33 35 32 30 26 23 24 29 31 28 24 21
25 17 25 22 23 21 22 26 28 31 26 19 26 22 23 27 23 24 26 21 24 26 28 30 31 30 31 33 33 32 32 33 33 33 32 30 29 32 31 29 28 23 25 24
MSLP
1023.71 1023.92 1024.26 1024.44 1024.44 1024.39 1024.66 1025.18 1025.56 1024.63 1024.43 1025.80 1026.55 1026.31 1025.09 1024.26 1024.12 1023.80 1024.05 1024.43 1024.73 1025.37 1025.89 1026.33 1026.43 1026.52 1026.54 1026.82 1027.71 1028.97 1029.98 1031.35 1031.69 1031.27 1030.74 1030.61 1031.07 1032.12 1032.94 1034.11 1033.71 1032.67 1030.82 1026.79
1023.50 1023.76 1024.15 1024.30 1024.57 1024.24 1024.91 1025.60 1025.85 1025.00 1025.11 1026.43 1026.86 1025.70 1024.94 1024.22 1024.05 1023.99 1024.36 1024.69 1025.18 1025.60 1026.19 1026.82 1026.95 1026.88 1026.99 1027.13 1027.76 1028.69 1029.91 1031.66 1032.52 1032.26 1031.87 1031.46 1031.94 1032.17 1032.58 1033.27 1033.06 1032.03 1030.44 1026.76
1023.40 1023.60 1023.95 1024.31 1024.51 1024.52 1024.74 1025.84 1026.54 1026.47 1026.49 1026.75 1026.08 1025.76 1025.06 1024.56 1024.30 1024.29 1024.31 1024.96 1025.32 1026.23 1026.63 1026.89 1027.27 1027.47 1027.31 1027.52 1027.96 1028.27 1029.46 1031.54 1032.66 1033.12 1032.63 1032.56 1032.82 1032.19 1032.00 1032.54 1032.35 1030.36 1028.30 1025.79
1023.32 1023.60 1023.98 1024.31 1024.39 1024.42 1024.77 1025.97 1026.62 1026.48 1027.17 1026.94 1026.23 1025.66 1025.15 1024.61 1024.63 1024.59 1024.69 1025.22 1025.61 1026.10 1027.07 1027.46 1027.61 1027.80 1027.94 1027.98 1028.13 1028.82 1029.97 1031.64 1032.34 1032.57 1032.04 1031.75 1031.33 1030.73 1030.03 1030.59 1029.27 1029.19 1025.91 1025.20
1023.37 1023.64 1023.99 1024.20 1024.33 1024.44 1024.86 1025.82 1026.16 1026.27 1026.57 1026.30 1026.08 1025.51 1025.18 1024.56 1024.55 1024.79 1025.26 1025.71 1025.93 1026.45 1027.18 1027.62 1028.35 1028.50 1028.63 1028.70 1028.96 1029.53 1030.49 1031.41 1032.00 1031.78 1031.06 1030.69 1029.98 1028.77 1027.94 1027.27 1026.90 1026.36 1025.19 1024.60
1023.30 1023.65 1023.92 1024.39 1024.40 1024.57 1025.05 1025.42 1025.42 1025.88 1026.57 1026.43 1026.25 1025.58 1024.98 1024.42 1024.06 1024.58 1024.78 1025.52 1026.30 1026.94 1027.55 1027.97 1028.22 1028.50 1028.64 1028.82 1029.26 1029.88 1030.84 1031.82 1032.38 1031.92 1030.85 1029.86 1028.69 1027.05 1026.09 1025.69 1025.66 1025.72 1025.07 1024.63
1023.22 1023.65 1024.04 1024.19 1024.55 1024.64 1024.94 1025.35 1025.73 1026.45 1027.20 1026.60 1026.24 1025.46 1025.01 1024.82 1024.54 1025.00 1025.32 1025.71 1026.39 1027.45 1027.65 1028.13 1028.45 1028.61 1028.54 1028.53 1028.71 1029.18 1030.21 1031.49 1032.20 1032.30 1030.95 1029.51 1026.53 1025.30 1024.77 1024.76 1024.81 1024.71 1024.29 1023.85
1023.28 1023.58 1023.91 1024.37 1024.54 1024.73 1024.84 1025.19 1025.71 1026.47 1027.10 1026.79 1026.06 1025.59 1025.23 1025.18 1025.25 1025.59 1025.80 1026.28 1026.79 1027.38 1028.52 1029.79 1030.22 1029.96 1028.96 1028.17 1027.87 1028.41 1029.21 1030.82 1032.17 1032.06 1031.06 1028.42 1025.84 1024.56 1024.32 1024.19 1024.04 1023.60 1023.33 1023.14
1023.15 1023.49 1024.01 1024.33 1024.55 1024.86 1025.15 1025.34 1025.41 1026.28 1026.95 1027.07 1026.20 1025.90 1025.49 1025.76 1026.20 1026.40 1026.96 1027.31 1027.56 1028.36 1030.11 1031.66 1032.22 1031.04 1029.51 1028.68 1027.55 1027.13 1028.51 1029.65 1031.07 1031.56 1030.82 1028.41 1025.30 1023.90 1023.14 1023.15 1023.45 1022.78 1022.89 1022.66
1023.14 1023.43 1023.95 1024.34 1024.74 1024.99 1025.38 1025.59 1025.47 1026.23 1027.18 1027.05 1026.52 1026.24 1026.18 1025.93 1026.38 1027.19 1027.44 1027.97 1028.54 1029.19 1031.16 1032.72 1032.73 1031.21 1029.10 1028.38 1027.71 1027.31 1028.20 1029.43 1030.05 1030.22 1029.38 1026.58 1023.97 1023.07 1022.39 1022.91 1023.25 1022.40 1022.34 1022.33
1023.15 1023.56 1023.87 1024.37 1024.83 1025.17 1025.57 1025.93 1025.69 1026.13 1027.05 1026.98 1026.58 1026.45 1026.29 1026.40 1026.67 1027.42 1027.92 1028.73 1029.34 1030.50 1031.65 1032.39 1032.22 1031.12 1029.15 1028.24 1027.17 1026.75 1027.22 1027.97 1028.71 1028.81 1027.77 1025.50 1022.72 1022.41 1022.53 1022.24 1021.82 1021.82 1021.75 1021.70
1023.21 1023.56 1023.92 1024.42 1024.83 1025.16 1025.58 1026.27 1026.17 1026.19 1027.09 1027.28 1026.86 1026.44 1026.09 1026.11 1026.44 1027.12 1027.68 1028.26 1028.81 1029.77 1030.97 1031.69 1031.39 1030.86 1029.52 1028.45 1027.73 1026.42 1026.74 1026.36 1026.52 1026.27 1024.76 1023.27 1022.41 1021.95 1021.51 1021.44 1021.36 1021.24 1021.06 1020.83
1023.10 1023.42 1023.96 1024.51 1024.83 1025.21 1025.62 1026.24 1026.68 1026.94 1027.79 1027.71 1027.06 1026.01 1025.41 1025.64 1025.88 1026.25 1027.46 1027.82 1027.77 1028.68 1029.04 1030.12 1030.65 1030.68 1029.66 1028.75 1027.51 1026.52 1025.79 1025.48 1025.59 1025.14 1023.49 1022.65 1021.96 1021.36 1021.02 1020.83 1020.64 1020.23 1020.40 1020.33
1022.93 1023.53 1024.05 1024.49 1024.82 1025.29 1025.74 1026.22 1026.80 1027.12 1027.88 1028.20 1027.03 1025.58 1025.38 1024.62 1025.26 1025.74 1025.92 1026.48 1027.20 1027.84 1028.80 1029.94 1030.46 1030.20 1028.97 1028.31 1027.11 1026.28 1025.71 1025.35 1024.72 1024.22 1022.94 1022.26 1021.37 1020.99 1020.68 1020.52 1020.31 1019.97 1019.65 1019.87
1023.24 1023.76 1024.14 1024.45 1025.02 1025.35 1025.86 1026.55 1026.80 1026.88 1027.66 1028.25 1027.52 1026.23 1024.77 1024.27 1024.86 1025.62 1026.09 1026.70 1027.48 1028.41 1029.33 1029.73 1029.55 1028.94 1028.60 1027.85 1026.80 1024.88 1024.68 1023.81 1024.21 1022.90 1021.92 1021.83 1021.08 1020.62 1020.18 1019.92 1019.68 1019.27 1019.34 1019.63
1023.55 1023.88 1024.31 1024.91 1024.97 1025.48 1026.42 1027.27 1027.11 1026.76 1027.11 1028.19 1028.19 1026.44 1025.14 1024.30 1024.65 1025.40 1026.20 1026.82 1027.63 1028.23 1028.81 1029.06 1028.47 1027.77 1027.82 1027.29 1025.25 1023.07 1022.73 1022.41 1022.05 1021.60 1021.16 1020.98 1020.41 1019.90 1019.41 1019.24 1019.08 1018.84 1019.25 1019.50
1023.96 1024.23 1024.69 1024.96 1025.47 1026.21 1026.77 1027.20 1027.13 1026.74 1027.23 1028.38 1028.50 1027.22 1025.35 1024.49 1024.96 1025.85 1026.45 1026.85 1027.42 1027.88 1028.34 1028.24 1027.97 1027.52 1027.15 1026.09 1023.93 1022.38 1021.96 1021.48 1021.01 1020.76 1020.59 1020.19 1019.45 1019.06 1018.53 1018.44 1018.55 1018.75 1019.11 1019.61
1024.22 1024.62 1025.02 1025.32 1025.83 1026.37 1026.86 1027.10 1026.81 1026.88 1027.66 1028.51 1028.93 1027.68 1026.30 1025.19 1026.00 1026.73 1026.85 1027.52 1027.66 1027.72 1027.73 1027.74 1027.37 1026.87 1026.32 1024.52 1021.32 1020.65 1020.29 1020.19 1020.10 1019.62 1019.21 1019.22 1018.39 1018.27 1018.05 1017.99 1018.30 1018.97 1019.55 1020.00
1024.66 1025.00 1025.45 1026.04 1026.48 1026.77 1026.65 1026.41 1026.96 1027.51 1028.29 1028.76 1028.95 1028.31 1026.97 1025.90 1026.65 1027.06 1027.49 1027.55 1027.96 1027.73 1027.43 1027.04 1026.80 1025.64 1024.38 1021.18 1020.76 1019.83 1019.18 1019.18 1018.61 1018.30 1018.17 1018.03 1017.77 1017.18 1017.49 1017.88 1018.31 1018.79 1019.35 1019.93
1024.94 1025.65 1026.29 1026.86 1026.49 1026.06 1026.24 1027.22 1027.75 1028.22 1028.32 1028.59 1028.35 1027.78 1027.17 1026.68 1027.02 1027.64 1027.99 1027.79 1027.86 1027.56 1026.35 1026.14 1025.51 1023.26 1021.27 1020.34 1019.45 1018.72 1018.09 1017.96 1017.76 1017.69 1017.29 1017.36 1017.40 1017.33 1017.38 1017.86 1018.19 1018.88 1019.30 1019.66
1025.58 1025.97 1026.42 1026.42 1026.04 1026.48 1027.07 1027.88 1028.07 1028.29 1028.36 1028.00 1027.40 1027.16 1026.97 1026.27 1026.72 1027.20 1027.25 1026.90 1026.81 1026.38 1025.33 1025.36 1024.52 1022.26 1020.43 1019.10 1018.39 1017.47 1017.06 1016.66 1016.47 1016.35 1016.26 1016.43 1016.65 1017.00 1017.39 1018.02 1018.48 1018.75 1019.19 1019.77
1025.51 1025.77 1026.36 1026.69 1027.03 1027.47 1027.94 1027.83 1027.81 1027.97 1027.33 1026.64 1026.59 1026.27 1026.52 1026.06 1025.80 1026.30 1026.48 1026.35 1025.89 1025.04 1024.69 1024.86 1023.48 1021.69 1020.56 1019.20 1017.71 1017.08 1016.51 1015.77 1015.41 1015.42 1015.75 1015.97 1016.34 1017.08 1017.84 1018.38 1018.80 1019.06 1019.48 1019.76
1025.34 1025.83 1026.67 1026.98 1027.72 1027.90 1027.70 1027.47 1026.93 1026.87 1026.06 1025.89 1025.76 1025.82 1025.67 1025.49 1025.57 1025.91 1026.05 1025.93 1025.16 1024.24 1024.62 1023.69 1023.58 1022.75 1021.20 1020.07 1018.93 1018.05 1017.24 1017.23 1017.00 1016.71 1016.59 1016.98 1017.62 1018.12 1018.42 1018.95 1019.35 1019.61 1019.81 1020.03
1026.30 1026.69 1027.48 1027.47 1027.55 1027.31 1026.78 1026.60 1026.38 1026.02 1025.92 1025.79 1025.58 1025.39 1025.43 1025.01 1025.10 1024.77 1024.98 1024.52 1024.28 1024.24 1024.12 1023.58 1023.28 1022.91 1022.43 1021.35 1020.44 1019.70 1018.92 1018.67 1018.57 1018.30 1018.45 1018.57 1019.18 1019.44 1019.52 1019.62 1019.73 1019.84 1020.12 1020.36
1026.88 1027.07 1027.39 1027.25 1026.86 1026.76 1026.61 1026.26 1026.18 1026.22 1026.08 1025.85 1025.58 1025.34 1025.10 1024.61 1024.07 1023.56 1023.58 1023.74 1023.65 1023.33 1023.61 1023.66 1023.42 1023.31 1022.71 1022.09 1021.78 1021.40 1020.62 1020.26 1019.87 1019.71 1019.43 1019.46 1019.65 1019.80 1019.94 1020.11 1020.10 1020.22 1020.51 1020.74
1027.29 1027.49 1027.52 1027.16 1027.20 1027.30 1027.00 1026.59 1026.31 1025.99 1025.93 1025.74 1025.73 1025.41 1024.85 1023.96 1023.39 1023.06 1022.99 1023.16 1023.02 1023.43 1023.31 1023.22 1023.35 1022.96 1022.36 1022.08 1021.77 1021.42 1020.74 1020.50 1020.13 1019.24 1018.99 1019.35 1019.59 1019.76 1019.88 1019.88 1019.85 1019.98 1020.19 1020.51
1027.65 1027.47 1027.07 1027.32 1027.34 1027.39 1027.14 1026.71 1026.47 1025.99 1026.16 1026.28 1025.94 1025.15 1024.15 1023.32 1022.91 1022.47 1022.61 1023.13 1023.75 1023.86 1023.34 1023.08 1022.84 1022.63 1022.22 1021.63 1021.32 1020.83 1020.55 1020.11 1019.70 1019.24 1019.10 1019.25 1019.30 1019.25 1019.50 1019.55 1019.44 1019.53 1019.51 1019.63
Wind_Speed
9 6 4 2 3 6 5 3 3 4 3 6 1 3 3 3 3 3 3 3 4 3 3 2 2 3 5 3 4 3 2 5 2 8 0 9 5 6 4 5 8 3 4 7
9 7 5 4 3 7 3 3 1 3 5 4 2 4 3 3 3 4 3 3 3 2 3 3 1 3 6 9 3 4 4 1 3 7 6 6 1 3 4 2 1 8 5 7
9 7 6 5 4 4 4 4 2 5 5 0 4 4 2 4 2 3 5 4 5 3 2 2 3 1 1 3 2 2 6 4 8 8 10 4 6 4 5 6 3 7 13 22
9 7 6 6 4 3 4 3 3 4 2 4 1 2 5 5 3 1 3 1 4 6 4 1 3 1 4 5 3 2 6 5 4 6 9 7 11 15 18 8 16 8 23 19
9 7 6 6 3 2 3 4 4 2 1 1 5 1 4 6 4 6 3 4 4 5 5 5 5 3 2 5 3 3 3 2 2 5 7 8 12 17 16 14 10 12 17 9
9 8 6 5 3 2 2 1 2 5 3 1 5 4 4 4 6 1 6 7 4 3 5 4 5 7 6 6 6 4 2 3 3 6 3 9 5 6 6 2 2 3 6 4
9 8 6 5 3 3 3 1 3 5 3 2 4 3 4 2 3 6 3 4 5 4 2 2 3 4 7 8 8 8 5 5 3 5 3 3 8 8 5 4 4 5 7 8
9 9 8 6 4 3 3 1 3 3 1 1 1 2 4 6 4 2 3 2 4 6 5 5 7 6 6 4 8 12 10 5 1 3 3 8 7 2 2 1 8 8 5 6
10 10 8 7 5 4 3 2 2 4 6 4 1 0 1 4 4 3 4 4 3 6 4 5 3 3 4 4 3 11 11 8 4 2 3 6 8 4 6 1 4 8 5 5
9 10 9 7 6 5 3 1 3 4 4 3 2 2 3 1 4 3 3 5 2 4 3 3 4 4 3 3 3 4 4 2 11 9 5 8 9 7 4 2 10 4 2 5
8 8 9 9 7 7 4 2 2 4 3 4 2 2 2 4 3 5 3 5 4 4 3 4 4 3 4 2 3 4 6 5 5 2 1 10 7 0 1 6 2 3 4 5
9 8 10 9 8 8 5 2 2 3 4 4 1 3 3 5 5 4 1 4 4 5 4 1 1 2 2 2 3 3 3 7 4 9 8 6 3 5 5 5 5 6 5 7
11 12 11 9 8 9 6 3 1 5 3 5 3 6 5 5 8 5 4 2 4 3 5 4 3 3 3 2 5 4 3 2 3 4 4 6 6 7 5 7 7 7 5 6
14 12 10 8 7 8 6 3 1 4 3 2 6 3 4 2 6 8 5 5 3 4 3 2 3 3 4 4 6 5 5 4 3 8 14 15 14 6 5 7 10 6 4 5
13 10 8 8 8 8 5 2 1 3 5 2 4 7 8 10 7 8 6 4 2 2 1 2 4 3 2 3 5 14 9 16 9 10 13 8 10 10 11 9 14 9 7 4
14 13 11 9 11 11 5 4 3 2 4 3 3 4 5 2 5 7 6 5 3 3 4 3 4 4 3 4 6 7 7 9 16 15 11 12 15 12 10 11 8 6 6 7
13 13 11 9 8 4 4 5 4 3 4 3 4 5 5 2 3 3 3 3 2 4 3 4 4 3 4 3 19 8 9 10 13 14 14 19 17 13 7 7 8 7 4 6
12 11 11 11 11 7 4 2 2 3 4 2 2 6 5 1 1 1 1 3 1 1 3 1 3 2 2 9 14 15 17 19 20 22 19 18 21 12 8 7 6 7 6 5
14 13 12 5 4 2 4 5 6 3 4 2 2 2 5 2 1 2 4 3 1 1 3 3 5 3 8 11 10 13 13 10 14 14 11 11 9 10 9 7 7 8 6 5
12 5 4 1 3 8 6 5 2 3 1 1 4 2 4 3 1 1 2 1 3 2 6 3 3 9 15 13 16 17 18 15 12 10 11 7 4 4 7 6 6 6 7 4
3 2 2 1 6 4 2 2 2 2 3 3 4 6 5 2 3 4 4 2 3 3 5 6 4 5 6 12 16 18 17 18 18 17 14 7 7 7 8 7 6 6 6 4
5 4 4 1 3 3 3 3 3 4 4 3 3 5 5 4 3 3 3 3 1 6 4 3 4 3 16 18 14 7 4 6 10 11 10 5 10 9 7 6 6 5 5 4
2 4 3 4 0 2 6 5 2 2 3 1 0 2 2 2 1 1 3 2 6 2 2 5 2 9 14 15 10 7 12 13 14 9 10 9 8 5 5 5 3 3 3 2
3 3 2 5 3 4 3 1 1 2 3 3 2 2 2 1 2 3 5 5 1 3 2 2 3 8 12 16 16 12 10 7 5 6 6 8 6 4 4 4 3 2 1 2
2 2 3 5 3 1 1 1 2 2 2 2 3 3 2 3 5 2 2 3 5 4 2 2 2 6 8 9 11 13 13 10 5 1 1 3 3 3 3 2 2 3 3 3
2 1 2 3 3 4 2 0 2 2 1 2 0 2 3 5 3 4 5 3 4 1 1 1 1 3 3 6 4 6 2 4 7 4 1 3 5 4 4 4 6 6 4 5
1 3 3 3 3 4 3 2 2 1 2 2 2 5 8 2 4 4 3 3 1 3 3 1 4 5 7 8 8 6 7 7 7 6 4 4 3 4 3 6 6 5 6 6
Wind_Direction
173 191 207 210 36 341 93 101 80 296 44 53 74 139 165 100 126 51 80 81 85 93 87 82 57 106 147 155 150 123 130 143 313 300 165 152 139 184 176 121 291 238 237 249
171 178 179 145 66 57 117 101 153 332 77 129 252 246 96 84 132 166 143 110 98 90 126 133 235 104 76 60 82 149 175 3 5 348 3 351 18 241 183 118 57 234 224 262
166 163 156 144 102 53 89 85 80 332 41 282 138 139 162 114 58 55 98 118 98 89 171 173 192 25 74 64 113 50 124 159 160 192 214 178 314 259 222 160 211 263 256 278
164 162 164 148 129 79 94 57 231 188 222 297 185 129 160 138 149 109 103 78 178 167 178 155 222 77 355 358 41 68 131 188 162 235 246 241 259 276 290 207 243 214 273 276
165 168 167 160 138 101 86 128 132 18 137 140 144 55 188 164 153 146 200 169 164 135 161 187 199 133 167 213 30 72 26 269 265 278 247 252 277 286 280 274 276 276 268 300
170 176 165 162 143 81 110 292 353 102 302 123 98 213 189 202 128 75 160 161 117 126 152 168 197 201 198 199 177 169 196 156 82 265 314 321 328 238 277 274 339 300 0 303
166 174 168 150 132 86 124 195 104 86 254 116 182 189 182 9 165 141 120 118 126 154 164 21 348 293 236 212 221 176 181 153 136 256 7 11 233 298 254 240 235 272 250 277
168 174 167 159 142 74 84 6 98 116 160 197 300 279 184 124 90 97 141 91 132 130 60 42 359 338 5 276 218 201 192 133 309 143 227 272 283 158 287 307 298 247 249 276
166 170 170 160 154 118 79 18 104 98 117 254 7 324 330 157 147 38 69 48 88 72 87 79 134 256 232 298 278 197 187 189 156 127 182 246 233 260 255 337 265 253 226 271
158 167 173 164 165 151 90 3 81 89 109 274 70 143 179 50 92 122 128 168 59 70 94 107 174 249 236 227 209 193 170 168 205 223 223 262 243 229 270 102 241 293 217 259
160 174 169 163 167 153 101 277 58 112 125 275 11 356 64 13 56 136 199 49 343 44 103 135 231 212 242 292 245 195 184 172 197 120 113 267 215 231 335 235 243 210 205 240
180 186 171 167 165 159 104 68 352 87 93 230 291 264 231 170 183 141 351 174 163 177 91 266 77 305 331 174 257 278 240 190 203 178 212 223 259 222 225 193 185 221 215 227
196 173 159 167 167 162 126 125 112 55 60 318 22 253 268 179 198 170 140 292 170 168 171 166 198 225 135 215 239 242 270 312 233 11 259 238 284 299 224 208 220 219 249 227
135 139 149 154 150 160 130 104 160 96 123 106 283 302 288 231 167 187 175 161 88 102 100 104 182 180 175 231 245 234 205 330 262 272 278 281 262 247 285 263 263 220 188 195
124 126 144 157 166 157 96 78 188 133 122 227 282 310 253 243 177 196 187 163 145 89 112 211 222 220 218 237 270 254 220 249 242 252 258 245 268 270 267 282 285 231 180 219
116 111 108 111 113 101 80 23 326 185 114 82 324 281 292 275 168 179 178 167 148 158 167 202 234 231 155 242 256 229 202 222 232 245 262 261 268 258 261 285 218 178 197 222
121 119 113 107 123 78 113 178 220 158 101 92 311 294 269 234 104 50 70 63 155 147 184 217 197 226 184 229 263 247 263 276 278 271 273 288 270 262 248 221 196 195 139 132
120 119 113 105 96 76 40 270 58 77 93 106 270 272 343 85 33 54 74 120 141 162 206 275 188 303 169 253 252 261 254 252 257 261 265 252 262 259 239 200 183 139 146 147
122 118 104 61 55 87 229 196 111 65 115 163 164 214 255 7 10 93 15 87 56 296 227 226 167 217 225 242 259 262 258 237 250 256 256 273 282 243 205 174 157 154 154 165
114 65 65 17 232 171 84 29 69 18 325 235 246 263 275 97 114 158 77 124 219 213 231 112 194 252 257 263 259 263 270 259 250 256 267 276 247 198 181 189 155 165 167 171
55 85 92 254 136 57 52 114 186 149 251 216 235 209 229 279 139 203 186 210 211 232 235 171 233 265 250 246 247 255 257 259 254 243 251 233 228 187 157 142 153 143 146 166
173 148 110 97 52 42 98 210 167 199 240 215 191 218 185 257 126 122 211 217 268 249 139 196 254 290 340 327 295 319 327 311 254 232 241 168 112 116 124 135 141 144 161 152
56 62 85 82 106 125 170 214 242 229 223 219 257 334 185 351 130 192 114 207 239 39 66 224 61 328 348 342 334 30 56 35 23 37 78 96 109 117 123 133 118 131 94 44
93 127 69 156 207 235 199 187 215 299 16 347 247 215 206 218 189 188 204 227 43 308 260 258 312 12 4 10 6 358 16 49 58 81 51 58 67 88 84 87 104 67 319 262
89 100 196 210 226 211 41 346 30 54 327 23 347 301 189 250 258 210 190 221 242 202 219 238 319 356 356 10 12 7 8 2 7 325 99 43 13 12 340 339 328 344 323 307
68 210 333 303 62 339 13 203 202 203 170 350 7 269 277 257 222 223 197 226 210 194 2 45 184 281 312 292 265 284 229 249 284 301 161 218 216 223 243 280 294 281 255 261
230 262 228 183 216 214 214 155 268 255 69 173 222 250 230 272 242 219 7 41 77 272 265 245 238 249 277 300 301 275 271 279 288 314 311 261 222 213 246 266 272 245 250 237